GW5410 Weather Reports


time (UTC)temp
C
wind
direction
speed
KPH
gust
KPH
rain 1hr
cm
rain 24hr
cm
rain mn
cm
humidity
%
barometer
mb
20260507024003 19 282 0.0 3.2 0.00 0.00 0.00 63 985.9
20260507023503 19 43 0.0 3.2 0.00 0.00 0.00 63 985.8
20260507022504 20 95 0.0 1.6 0.00 0.00 0.00 62 985.7
20260507022004 20 261 0.0 1.6 0.00 0.00 0.00 61 985.4
20260507020504 20 27 1.6 3.2 0.00 0.00 0.00 60 985.4
20260507020003 20 216 0.0 3.2 0.00 0.00 0.00 59 985.4
20260507015503 21 228 0.0 4.8 0.00 0.00 0.00 59 985.4
20260507015004 21 66 0.0 1.6 0.00 0.00 0.00 58 985.2
20260507013504 21 230 0.0 1.6 0.00 0.00 0.00 56 985.3
20260507013003 21 254 0.0 3.2 0.00 0.00 0.00 56 985.1
20260507012003 21 240 0.0 3.2 0.00 0.00 0.00 55 985.1
20260507011503 22 239 0.0 3.2 0.00 0.00 0.00 54 985.0
20260507011004 22 153 0.0 1.6 0.00 0.00 0.00 54 985.1
20260507010504 22 265 0.0 1.6 0.00 0.00 0.00 54 985.1
20260507010004 22 103 1.6 3.2 0.00 0.00 0.00 53 984.8
20260507005503 22 329 1.6 8.0 0.00 0.00 0.00 53 984.9
20260507005003 22 92 0.0 3.2 0.00 0.00 0.00 53 984.9
20260507004004 22 169 1.6 4.8 0.00 0.00 0.00 52 984.8
20260507003504 22 67 1.6 3.2 0.00 0.00 0.00 52 984.8
20260507003003 22 188 1.6 3.2 0.00 0.00 0.00 51 984.8
20260507002503 22 78 0.0 1.6 0.00 0.00 0.00 51 984.8
20260507002003 22 221 1.6 4.8 0.00 0.00 0.00 51 984.8
20260507001504 22 249 0.0 3.2 0.00 0.00 0.00 50 984.8
20260507001004 23 174 0.0 3.2 0.00 0.00 0.00 50 984.8
20260507000505 23 148 0.0 4.8 0.00 0.00 0.00 51 984.8
20260507000004 23 166 1.6 4.8 0.00 0.00 0.00 49 984.8
20260506235503 23 116 1.6 4.8 0.00 0.00 0.00 50 984.8
20260506235004 23 153 1.6 4.8 0.00 0.00 0.00 49 984.8
20260506234504 23 137 1.6 8.0 0.00 0.00 0.00 48 984.5
20260506234004 23 135 1.6 4.8 0.00 0.00 0.00 48 984.8
20260506233504 24 120 0.0 4.8 0.00 0.00 0.00 48 984.8
20260506233003 24 175 1.6 4.8 0.00 0.00 0.00 48 984.8
20260506232503 24 121 1.6 3.2 0.00 0.00 0.00 47 984.8
20260506232003 24 137 1.6 4.8 0.00 0.00 0.00 47 984.8
20260506231503 25 158 1.6 3.2 0.00 0.00 0.00 45 984.8
20260506231004 25 160 1.6 4.8 0.00 0.00 0.00 43 984.8
20260506230503 26 96 1.6 4.8 0.00 0.00 0.00 42 984.8
20260506230004 26 291 0.0 3.2 0.00 0.00 0.00 41 984.8
20260506225503 25 255 1.6 3.2 0.00 0.00 0.00 41 984.8
20260506225003 26 166 0.0 3.2 0.00 0.00 0.00 39 984.8
20260506224504 26 336 1.6 3.2 0.00 0.00 0.00 39 985.1
20260506224004 26 177 1.6 3.2 0.00 0.00 0.00 39 985.1
20260506223503 26 172 0.0 3.2 0.00 0.00 0.00 39 985.1
20260506223003 26 230 0.0 12.9 0.00 0.00 0.00 39 985.1
20260506222503 26 337 1.6 4.8 0.00 0.00 0.00 38 985.2
20260506222004 27 123 1.6 4.8 0.00 0.00 0.00 38 985.2
20260506221504 26 144 0.0 3.2 0.00 0.00 0.00 39 985.4
20260506221003 26 226 0.0 4.8 0.00 0.00 0.00 39 985.4
20260506220504 25 345 0.0 4.8 0.00 0.00 0.00 40 985.4
20260506215504 25 190 0.0 9.7 0.00 0.00 0.00 41 985.4
20260506215004 26 0 1.6 4.8 0.00 0.00 0.00 39 985.7
20260506214504 26 208 0.0 4.8 0.00 0.00 0.00 40 985.4
20260506214004 25 180 0.0 4.8 0.00 0.00 0.00 41 985.8
20260506213003 25 231 1.6 3.2 0.00 0.00 0.00 41 985.8
20260506212503 25 188 0.0 3.2 0.00 0.00 0.00 40 985.9
20260506211504 26 183 1.6 3.2 0.00 0.00 0.00 40 986.1
20260506210503 25 198 0.0 3.2 0.00 0.00 0.00 42 986.1
20260506210003 24 191 1.6 3.2 0.00 0.00 0.00 42 986.1
20260506205504 24 206 0.0 4.8 0.00 0.00 0.00 44 986.4
20260506205004 23 0 1.6 8.0 0.00 0.00 0.00 44 986.5
20260506204004 25 293 1.6 3.2 0.00 0.00 0.00 42 986.5
20260506203503 24 305 1.6 4.8 0.00 0.00 0.00 43 986.5
20260506203003 24 279 1.6 3.2 0.00 0.00 0.00 43 986.5
20260506202504 23 7 1.6 4.8 0.00 0.00 0.00 43 986.7
20260506202004 23 190 1.6 4.8 0.00 0.00 0.00 43 986.7
20260506201503 22 217 1.6 8.0 0.00 0.00 0.00 44 986.5
20260506201004 24 12 3.2 4.8 0.00 0.00 0.00 42 986.8
20260506200504 23 178 0.0 3.2 0.00 0.00 0.00 43 986.8
20260506200004 23 34 1.6 3.2 0.00 0.00 0.00 42 986.8
20260506195504 23 17 1.6 3.2 0.00 0.00 0.00 42 987.0
20260506195004 23 252 1.6 3.2 0.00 0.00 0.00 43 986.9
20260506194503 23 312 1.6 3.2 0.00 0.00 0.00 42 986.9
20260506193503 22 156 1.6 3.2 0.00 0.00 0.00 44 987.1
20260506193004 21 282 1.6 4.8 0.00 0.00 0.00 45 987.1
20260506192504 22 30 1.6 3.2 0.00 0.00 0.00 44 987.1
20260506192004 22 105 1.6 3.2 0.00 0.00 0.00 44 987.1
20260506191503 23 235 1.6 4.8 0.00 0.00 0.00 44 987.5
20260506190503 22 118 1.6 3.2 0.00 0.00 0.00 46 987.5
20260506190004 21 307 1.6 3.2 0.00 0.00 0.00 47 987.5
20260506185504 21 309 0.0 3.2 0.00 0.00 0.00 46 987.5
20260506184503 21 156 0.0 4.8 0.00 0.00 0.00 48 987.8
20260506183504 21 7 1.6 4.8 0.00 0.00 0.00 47 987.8
20260506182004 21 255 0.0 3.2 0.00 0.00 0.00 47 988.1
20260506181504 20 159 1.6 3.2 0.00 0.00 0.00 47 988.1
20260506181003 20 201 0.0 1.6 0.00 0.00 0.00 48 987.8
20260506180503 20 251 0.0 3.2 0.00 0.00 0.00 49 987.9
20260506175504 20 74 0.0 1.6 0.00 0.00 0.00 49 987.9
20260506175004 19 197 0.0 1.6 0.00 0.00 0.00 50 988.0
20260506174504 19 324 1.6 3.2 0.00 0.00 0.00 52 988.1
20260506174004 18 57 0.0 4.8 0.00 0.00 0.00 53 988.1
20260506173503 18 325 1.6 4.8 0.00 0.00 0.00 53 987.9
20260506172503 17 301 0.0 3.2 0.00 0.00 0.00 54 988.1
20260506172003 18 351 0.0 1.6 0.00 0.00 0.00 55 988.1
20260506171504 18 39 0.0 3.2 0.00 0.00 0.00 53 988.1
20260506171004 18 146 0.0 3.2 0.00 0.00 0.00 54 988.1
20260506170003 17 129 0.0 3.2 0.00 0.00 0.00 54 988.1
20260506165503 17 335 0.0 1.6 0.00 0.00 0.00 55 988.1
20260506165003 17 209 0.0 3.2 0.00 0.00 0.00 55 987.9
20260506164004 17 258 0.0 3.2 0.00 0.00 0.00 57 988.1
20260506163503 17 183 1.6 4.8 0.00 0.00 0.00 59 988.1
20260506162503 16 71 1.6 3.2 0.00 0.00 0.00 61 988.1
20260506162004 16 213 1.6 4.8 0.00 0.00 0.00 61 988.1
20260506161504 16 245 1.6 8.0 0.00 0.00 0.00 64 988.1
20260506160004 15 277 1.6 3.2 0.00 0.00 0.00 71 988.1
20260506155504 14 281 1.6 3.2 0.00 0.00 0.00 73 988.1
20260506155004 13 333 0.0 3.2 0.00 0.00 0.00 75 988.1
20260506154003 14 234 1.6 3.2 0.00 0.00 0.00 77 988.1
20260506153003 13 340 0.0 1.6 0.00 0.00 0.00 79 988.1
20260506152503 13 248 0.0 3.2 0.00 0.00 0.00 80 988.1
20260506152004 13 217 1.6 3.2 0.00 0.00 0.00 83 988.1
20260506151003 11 272 0.0 1.6 0.00 0.00 0.00 93 988.2
20260506150503 11 351 0.0 3.2 0.00 0.00 0.00 96 988.1
20260506150004 11 210 0.0 1.6 0.00 0.00 0.00 97 988.1
20260506145503 11 284 0.0 1.6 0.00 0.00 0.00 98 988.2
20260506145003 10 296 0.0 3.2 0.00 0.00 0.00 98 988.2
20260506144503 10 126 0.0 3.2 0.00 0.00 0.00 98 988.1
20260506144003 10 217 0.0 3.2 0.00 0.00 0.00 98 988.1
20260506143004 10 319 0.0 3.2 0.00 0.00 0.00 98 988.1
20260506142003 9 302 1.6 1.6 0.00 0.00 0.00 98 988.1
20260506141503 8 163 0.0 1.6 0.00 0.00 0.00 98 987.9
20260506140504 8 5 0.0 1.6 0.00 0.00 0.00 98 988.1
20260506140004 8 118 1.6 3.2 0.00 0.00 0.00 98 988.1
20260506135003 7 157 1.6 3.2 0.00 0.00 0.00 98 987.8
20260506134004 7 162 1.6 3.2 0.00 0.00 0.00 97 987.9
20260506133504 7 184 0.0 3.2 0.00 0.00 0.00 97 988.0
20260506133004 7 193 1.6 3.2 0.00 0.00 0.00 97 987.7
20260506132503 7 109 0.0 3.2 0.00 0.00 0.00 97 987.6
20260506132004 7 156 0.0 3.2 0.00 0.00 0.00 97 987.8
20260506131503 7 5 1.6 4.8 0.00 0.00 0.00 97 987.7
20260506130503 7 153 1.6 3.2 0.00 0.00 0.00 97 987.5
20260506130003 7 87 0.0 3.2 0.00 0.00 0.00 97 987.5
20260506125004 7 179 3.2 3.2 0.00 0.00 0.00 97 987.2
20260506124504 7 151 1.6 3.2 0.00 0.00 0.00 97 987.5
20260506124003 7 140 0.0 3.2 0.00 0.00 0.00 97 987.5
20260506123004 7 252 0.0 4.8 0.00 0.00 0.00 97 987.1
20260506122504 7 6 1.6 3.2 0.00 0.00 0.00 97 987.1
20260506122003 7 157 1.6 3.2 0.00 0.00 0.00 97 987.5
20260506121503 7 243 0.0 1.6 0.00 0.00 0.00 97 987.1
20260506121003 7 117 1.6 4.8 0.00 0.00 0.00 97 987.1
20260506120504 7 202 3.2 4.8 0.00 0.00 0.00 97 987.1
20260506120003 7 158 1.6 4.8 0.00 0.00 0.00 97 987.1
20260506115503 7 215 0.0 4.8 0.00 0.00 0.00 97 987.1
20260506115003 7 169 3.2 3.2 0.00 0.00 0.00 97 987.1
20260506114503 7 203 1.6 4.8 0.00 0.00 0.00 97 987.0
20260506113503 7 116 0.0 3.2 0.00 0.00 0.00 97 987.1
20260506113003 7 30 0.0 3.2 0.00 0.00 0.00 97 987.1
20260506112004 7 205 3.2 8.0 0.00 0.00 0.00 96 987.1
20260506110004 8 234 1.6 4.8 0.00 0.00 0.00 96 987.1
20260506104504 8 347 0.0 1.6 0.00 0.00 0.00 96 987.1
20260506104004 8 15 0.0 3.2 0.00 0.00 0.00 96 986.9
20260506103504 8 75 1.6 3.2 0.00 0.00 0.00 96 987.1
20260506103004 8 234 3.2 3.2 0.00 0.00 0.00 96 987.1
20260506102503 8 91 1.6 4.8 0.00 0.00 0.00 96 987.1
20260506102003 8 161 0.0 3.2 0.00 0.00 0.00 96 987.1
20260506101503 8 87 1.6 3.2 0.00 0.00 0.00 96 987.1
20260506101003 8 162 3.2 4.8 0.00 0.00 0.00 96 987.1
20260506095004 8 160 1.6 3.2 0.00 0.00 0.00 96 987.1
20260506094004 8 29 3.2 8.0 0.00 0.00 0.00 96 987.1
20260506093503 8 327 3.2 4.8 0.00 0.00 0.00 96 987.1
20260506093004 8 192 1.6 3.2 0.00 0.00 0.00 96 987.1
20260506092503 8 140 0.0 1.6 0.00 0.00 0.00 96 987.1
20260506092003 8 274 1.6 3.2 0.00 0.00 0.00 96 987.1
20260506090503 8 154 0.0 0.0 0.00 0.00 0.00 95 987.1
20260506090004 8 154 0.0 0.0 0.00 0.00 0.00 95 987.1
20260506085003 8 154 0.0 0.0 0.00 0.00 0.00 95 987.5
20260506084503 8 154 0.0 0.0 0.00 0.00 0.00 95 987.2
20260506084004 8 154 0.0 0.0 0.00 0.00 0.00 95 987.2
20260506083003 9 154 0.0 0.0 0.00 0.03 0.00 94 987.2
20260506082503 9 154 0.0 0.0 0.00 0.03 0.00 94 987.5
20260506082003 9 154 0.0 0.0 0.00 0.05 0.00 94 987.5
20260506080503 9 154 0.0 0.0 0.00 0.05 0.00 93 987.5
20260506073503 10 224 0.0 0.0 0.00 0.05 0.00 92 987.5
20260506073003 10 224 0.0 0.0 0.00 0.05 0.00 91 987.5
20260506072504 10 224 0.0 0.0 0.00 0.05 0.00 91 987.5
20260506072004 10 224 0.0 0.0 0.00 0.05 0.00 90 987.1
20260506071504 10 224 0.0 0.0 0.00 0.05 0.00 90 987.2
20260506071003 10 224 0.0 0.0 0.00 0.05 0.00 89 987.5
20260506070503 10 224 0.0 0.0 0.00 0.05 0.00 88 987.2
20260506062003 11 210 0.0 0.0 0.00 0.05 0.05 82 987.1
20260506061503 11 157 0.0 0.0 0.00 0.05 0.05 82 987.1
20260506061003 11 66 0.0 0.0 0.00 0.05 0.05 81 986.8
20260506060503 12 66 0.0 0.0 0.00 0.05 0.05 81 986.8
20260506050504 13 224 0.0 0.0 0.00 0.05 0.05 72 986.5
20260506045003 12 135 0.0 0.0 0.00 0.05 0.05 73 986.5
20260506044503 12 135 0.0 0.0 0.00 0.05 0.05 73 986.4
20260506044004 12 135 0.0 0.0 0.00 0.05 0.05 73 986.1
20260506043504 12 135 0.0 0.0 0.00 0.05 0.05 73 986.1
20260506042503 12 135 0.0 0.0 0.00 0.05 0.05 72 985.8
20260506042003 12 126 0.0 0.0 0.00 0.05 0.05 73 985.8
20260506041503 12 126 0.0 0.0 0.00 0.05 0.05 72 985.8
20260506041004 12 126 0.0 0.0 0.00 0.05 0.05 72 985.8
20260506040004 12 126 0.0 0.0 0.00 0.05 0.05 71 985.4
20260506035503 12 126 0.0 1.6 0.00 0.05 0.05 71 985.4
20260506035004 12 124 0.0 0.0 0.00 0.05 0.05 70 985.3
20260506034004 12 124 0.0 0.0 0.00 0.05 0.05 70 985.1
20260506033504 12 124 0.0 0.0 0.00 0.05 0.05 69 985.3
20260506032503 13 124 0.0 0.0 0.00 0.05 0.05 67 985.1
20260506032003 13 124 0.0 0.0 0.00 0.05 0.05 67 985.1
20260506031503 13 124 0.0 0.0 0.00 0.05 0.05 66 985.0
20260506031004 13 124 0.0 1.6 0.00 0.05 0.05 65 984.8
20260506030504 13 338 0.0 1.6 0.00 0.05 0.05 65 984.9
20260506030004 14 224 0.0 0.0 0.00 0.05 0.05 64 984.8
20260506025503 14 224 0.0 1.6 0.00 0.05 0.05 63 984.8
20260506025003 14 205 0.0 0.0 0.00 0.05 0.05 63 984.8
20260506024503 15 224 0.0 0.0 0.00 0.05 0.05 63 984.8